Weather History for Fort Dodge, IA

Change the Weather History Date:

Thursday, December 6, 2012

  Actual Average Record
Temperature  
Mean Temperature 39 °F -  
Max Temperature 46 °F 33 °F 61 °F (1975)
Min Temperature 32 °F 14 °F -13 °F (1972)
Degree Days  
Heating Degree Days 26    
Moisture  
Dew Point 33 °F    
Average Humidity 68    
Maximum Humidity 87    
Minimum Humidity 53    
Precipitation  
Precipitation 0.00 in - - ()
Sea Level Pressure  
Sea Level Pressure 29.91 in    
Wind  
Wind Speed 11 mph (WSW)    
Max Wind Speed 21 mph    
Max Gust Speed 26 mph    
Visibility 10 miles    
Events      
Averages and records for this station are not official NWS values.
T = Trace of Precipitation, MM = Missing Value Source: NWS Daily Summary

Daily Weather History Graph

Daily Weather History Graph

Search for Another Location

Airport:

Trip Planner

Search our weather history database for the weather conditions in past years. The results will help you decide how hot, cold, wet, or windy it might be!

Date:

Astronomy

Dec. 06, 2012 Rise Set
Actual Time 7:32 AM CST 4:43 PM CST
Civil Twilight 7:00 AM CST 5:15 PM CST
Nautical Twilight 6:25 AM CST 5:50 PM CST
Astronomical Twilight 5:51 AM CST 6:24 PM CST
Moon No Moon Rise 12:18 PM CST (12/6)
Length of Visible Light 10h 14m
Length of Day
9h 11m
Waning Gibbous, 49% of the Moon is Illuminated
Dec 6
Waning Gibbous
Dec 13
New
Dec 19
First Quarter
Dec 28
Full
Jan 4
Last Quarter

Hourly Weather History & Observations

Time (CST) Temp. Windchill Dew Point Humidity Pressure Visibility Wind Dir Wind Speed Gust Speed Precip Events Conditions
12:15 AM 44.6 °F 36.6 °F 32.0 °F 61% 29.92 in 10.0 mi South 19.6 mph 25.3 mph N/A   Scattered Clouds
12:35 AM 44.6 °F 37.8 °F 32.0 °F 61% 29.91 in 10.0 mi South 15.0 mph 23.0 mph N/A   Partly Cloudy
12:55 AM 44.6 °F 37.2 °F 32.0 °F 61% 29.90 in 10.0 mi South 17.3 mph 23.0 mph N/A   Clear
1:15 AM 44.6 °F 37.4 °F 32.0 °F 61% 29.89 in 10.0 mi South 16.1 mph 26.5 mph N/A   Clear
1:35 AM 44.6 °F 37.4 °F 32.0 °F 61% 29.89 in 10.0 mi South 16.1 mph 25.3 mph N/A   Clear
1:55 AM 44.6 °F 38.1 °F 32.0 °F 61% 29.89 in 10.0 mi South 13.8 mph 23.0 mph N/A   Clear
2:15 AM 44.6 °F 37.4 °F 32.0 °F 61% 29.88 in 10.0 mi South 16.1 mph 24.2 mph N/A   Clear
2:35 AM 44.6 °F 37.8 °F 32.0 °F 61% 29.87 in 10.0 mi South 15.0 mph 26.5 mph N/A   Clear
2:55 AM 46.4 °F 39.5 °F 32.0 °F 57% 29.86 in 10.0 mi South 17.3 mph 25.3 mph N/A   Clear
3:15 AM 46.4 °F 39.2 °F 32.0 °F 57% 29.86 in 10.0 mi South 18.4 mph 25.3 mph N/A   Clear
3:35 AM 46.4 °F 39.8 °F 32.0 °F 57% 29.86 in 10.0 mi South 16.1 mph 25.3 mph N/A   Clear
3:55 AM 46.4 °F 39.2 °F 30.2 °F 53% 29.85 in 10.0 mi South 18.4 mph 26.5 mph N/A   Clear
4:15 AM 46.4 °F 39.8 °F 30.2 °F 53% 29.85 in 10.0 mi South 16.1 mph 26.5 mph N/A   Clear
4:35 AM 46.4 °F 38.7 °F 32.0 °F 57% 29.84 in 10.0 mi South 20.7 mph 26.5 mph N/A   Clear
4:55 AM 46.4 °F 40.1 °F 32.0 °F 57% 29.85 in 10.0 mi South 15.0 mph 24.2 mph N/A   Clear
5:15 AM 46.4 °F 40.1 °F 30.2 °F 53% 29.86 in 10.0 mi SSW 15.0 mph 20.7 mph N/A   Partly Cloudy
5:35 AM 44.6 °F 37.4 °F 30.2 °F 57% 29.85 in 10.0 mi SSW 16.1 mph - N/A   Scattered Clouds
5:55 AM 44.6 °F 38.4 °F 30.2 °F 57% 29.86 in 10.0 mi SSW 12.7 mph 18.4 mph N/A   Mostly Cloudy
6:15 AM 44.6 °F 38.8 °F 30.2 °F 57% 29.86 in 10.0 mi SSW 11.5 mph - N/A   Partly Cloudy
6:35 AM 44.6 °F 39.2 °F 30.2 °F 57% 29.87 in 10.0 mi SSW 10.4 mph - N/A   Mostly Cloudy
6:55 AM 44.6 °F 38.8 °F 30.2 °F 57% 29.87 in 10.0 mi SSW 11.5 mph - N/A   Partly Cloudy
7:15 AM 44.6 °F 39.7 °F 30.2 °F 57% 29.87 in 10.0 mi SSW 9.2 mph - N/A   Partly Cloudy
7:35 AM 44.6 °F 39.7 °F 30.2 °F 57% 29.87 in 10.0 mi SSW 9.2 mph - N/A   Mostly Cloudy
7:55 AM 44.6 °F 41.4 °F 32.0 °F 61% 29.88 in 10.0 mi SW 5.8 mph - N/A   Overcast
8:15 AM 44.6 °F 42.2 °F 33.8 °F 66% 29.89 in 10.0 mi West 4.6 mph - N/A   Overcast
8:35 AM 42.8 °F 39.3 °F 33.8 °F 70% 29.90 in 9.0 mi SW 5.8 mph - N/A   Overcast
8:55 AM 42.8 °F 39.3 °F 35.6 °F 76% 29.90 in 10.0 mi South 5.8 mph - N/A   Overcast
9:15 AM 42.8 °F 39.3 °F 35.6 °F 76% 29.90 in 10.0 mi SSW 5.8 mph - N/A   Overcast
9:35 AM 42.8 °F 39.3 °F 35.6 °F 76% 29.90 in 10.0 mi SSW 5.8 mph - N/A   Overcast
9:55 AM 42.8 °F 40.1 °F 35.6 °F 76% 29.89 in 10.0 mi SW 4.6 mph - N/A   Overcast
10:15 AM 44.6 °F 40.7 °F 35.6 °F 71% 29.91 in 10.0 mi SW 6.9 mph - N/A   Overcast
10:35 AM 44.6 °F 41.4 °F 37.4 °F 76% 29.90 in 10.0 mi SW 5.8 mph - N/A   Overcast
10:55 AM 44.6 °F 41.4 °F 37.4 °F 76% 29.90 in 10.0 mi WSW 5.8 mph - N/A   Overcast
11:15 AM 46.4 °F 42.4 °F 37.4 °F 71% 29.90 in 10.0 mi West 8.1 mph - N/A   Overcast
11:35 AM 46.4 °F 42.9 °F 37.4 °F 71% 29.90 in 10.0 mi West 6.9 mph - N/A   Overcast
11:55 AM 46.4 °F 43.5 °F 37.4 °F 71% 29.90 in 10.0 mi WNW 5.8 mph - N/A   Overcast
12:15 PM 46.4 °F 42.4 °F 37.4 °F 71% 29.89 in 10.0 mi NNW 8.1 mph - N/A   Overcast
12:35 PM 44.6 °F 40.2 °F 35.6 °F 71% 29.89 in 10.0 mi NNW 8.1 mph - N/A   Overcast
12:55 PM 46.4 °F 43.5 °F 35.6 °F 66% 29.88 in 10.0 mi NNW 5.8 mph - N/A   Mostly Cloudy
1:15 PM 46.4 °F 41.5 °F 35.6 °F 66% 29.89 in 10.0 mi NNW 10.4 mph - N/A   Scattered Clouds
1:35 PM 46.4 °F 41.5 °F 33.8 °F 62% 29.90 in 10.0 mi North 10.4 mph - N/A   Overcast
1:55 PM 44.6 °F 40.2 °F 33.8 °F 66% 29.90 in 10.0 mi NNW 8.1 mph - N/A   Overcast
2:15 PM 44.6 °F 39.2 °F 35.6 °F 71% 29.90 in 10.0 mi NNW 10.4 mph - N/A   Overcast
2:35 PM 44.6 °F 39.7 °F 33.8 °F 66% 29.91 in 10.0 mi NNW 9.2 mph - N/A   Partly Cloudy
2:55 PM 44.6 °F 39.7 °F 33.8 °F 66% 29.90 in 10.0 mi NNW 9.2 mph 17.3 mph N/A   Partly Cloudy
3:15 PM 44.6 °F 39.7 °F 35.6 °F 71% 29.91 in 10.0 mi NNW 9.2 mph - N/A   Scattered Clouds
3:35 PM 44.6 °F 41.4 °F 33.8 °F 66% 29.92 in 10.0 mi NNW 5.8 mph - N/A   Overcast
3:55 PM 44.6 °F 42.2 °F 33.8 °F 66% 29.93 in 10.0 mi NNW 4.6 mph - N/A   Overcast
4:15 PM 44.6 °F 39.2 °F 33.8 °F 66% 29.93 in 10.0 mi North 10.4 mph - N/A   Mostly Cloudy
4:35 PM 44.6 °F 41.4 °F 33.8 °F 66% 29.94 in 10.0 mi North 5.8 mph - N/A   Mostly Cloudy
4:55 PM 42.8 °F 40.1 °F 33.8 °F 70% 29.93 in 10.0 mi North 4.6 mph - N/A   Mostly Cloudy
5:15 PM 42.8 °F - 33.8 °F 70% 29.94 in 10.0 mi Calm Calm - N/A   Mostly Cloudy
5:35 PM 41.0 °F - 32.0 °F 70% 29.94 in 10.0 mi Calm Calm - N/A   Mostly Cloudy
5:55 PM 39.2 °F - 32.0 °F 75% 29.95 in 10.0 mi Calm Calm - N/A   Scattered Clouds
6:15 PM 39.2 °F - 33.8 °F 81% 29.94 in 10.0 mi Calm Calm - N/A   Clear
6:35 PM 39.2 °F - 32.0 °F 75% 29.95 in 10.0 mi Calm Calm - N/A   Clear
6:55 PM 37.4 °F 34.9 °F 32.0 °F 81% 29.95 in 10.0 mi NNW 3.5 mph - N/A   Clear
7:15 PM 33.8 °F - 26.6 °F 75% 29.95 in 10.0 mi Calm Calm - N/A   Clear
7:35 PM 32.0 °F - 26.6 °F 80% 29.96 in 10.0 mi Calm Calm - N/A   Partly Cloudy
7:55 PM 33.8 °F - 28.4 °F 81% 29.96 in 10.0 mi Calm Calm - N/A   Mostly Cloudy
8:35 PM 33.8 °F - 28.4 °F 81% 29.97 in 10.0 mi Calm Calm - N/A   Scattered Clouds
8:55 PM 35.6 °F 32.8 °F 30.2 °F 81% 29.97 in 10.0 mi NNW 3.5 mph - N/A   Scattered Clouds
9:15 PM 33.8 °F - 30.2 °F 87% 29.97 in 10.0 mi Calm Calm - N/A   Scattered Clouds
9:35 PM 33.8 °F - 30.2 °F 87% 29.97 in 10.0 mi Calm Calm - N/A   Mostly Cloudy
9:55 PM 35.6 °F - 32.0 °F 87% 29.97 in 10.0 mi Calm Calm - N/A   Overcast
10:15 PM 37.4 °F 33.8 °F 33.8 °F 87% 29.98 in 10.0 mi North 4.6 mph - N/A   Overcast
10:35 PM 37.4 °F 34.9 °F 30.2 °F 75% 29.98 in 10.0 mi North 3.5 mph - N/A   Overcast
10:55 PM 37.4 °F 34.9 °F 30.2 °F 75% 29.98 in 10.0 mi North 3.5 mph - N/A   Overcast
11:15 PM 37.4 °F - 30.2 °F 75% 30.00 in 10.0 mi Calm Calm - N/A   Overcast
11:35 PM 37.4 °F 33.8 °F 30.2 °F 75% 30.01 in 10.0 mi NNW 4.6 mph - N/A   Overcast
11:55 PM 37.4 °F 32.8 °F 28.4 °F 70% 30.00 in 10.0 mi NNE 5.8 mph - N/A   Overcast